Time,TemperatureF,DewpointF,PressureIn,WindDirection,WindDirectionDegrees,WindSpeedMPH,WindSpeedGustMPH,Humidity,HourlyPrecipIn,Conditions,Clouds,dailyrainin,SoftwareType,DateUTC
2013-03-14 00:05:00,47.1,30.2,30.28,WSW,247,1.1,1.1,52,0.00,,,0.00,WUHU21636XXSP,2013-03-14 05:05:00,
2013-03-14 00:15:00,46.9,30.9,30.27,West,270,3.1,3.3,54,0.00,,,0.00,WUHU21636XXSP,2013-03-14 05:15:00,
2013-03-14 00:25:00,46.9,30.9,30.28,West,270,1.5,3.1,54,0.00,,,0.00,WUHU21636XXSP,2013-03-14 05:25:00,
2013-03-14 00:35:00,46.6,30.6,30.27,West,270,1.3,1.7,54,0.00,,,0.00,WUHU21636XXSP,2013-03-14 05:35:00,
2013-03-14 00:45:00,46.0,31.1,30.27,West,270,4.2,4.2,56,0.00,,,0.00,WUHU21636XXSP,2013-03-14 05:45:00,
2013-03-14 00:55:00,45.7,31.1,30.27,West,270,2.9,6.2,57,0.00,,,0.00,WUHU21636XXSP,2013-03-14 05:55:00,
2013-03-14 01:05:00,45.5,31.1,30.27,WSW,247,4.0,4.0,57,0.00,,,0.00,WUHU21636XXSP,2013-03-14 06:05:00,
2013-03-14 01:15:00,45.3,31.3,30.27,WSW,247,4.9,4.9,58,0.00,,,0.00,WUHU21636XXSP,2013-03-14 06:15:00,
2013-03-14 01:25:00,45.1,31.6,30.27,West,270,3.1,5.3,59,0.00,,,0.00,WUHU21636XXSP,2013-03-14 06:25:00,
2013-03-14 01:35:00,45.0,31.5,30.27,West,270,3.1,3.1,59,0.00,,,0.00,WUHU21636XXSP,2013-03-14 06:35:00,
2013-03-14 01:45:00,44.8,31.3,30.27,West,270,3.5,3.8,59,0.00,,,0.00,WUHU21636XXSP,2013-03-14 06:45:00,
2013-03-14 01:55:00,45.0,31.5,30.26,West,270,3.5,8.2,59,0.00,,,0.00,WUHU21636XXSP,2013-03-14 06:55:00,
2013-03-14 02:05:00,44.8,31.3,30.26,West,270,4.2,10.5,59,0.00,,,0.00,WUHU21636XXSP,2013-03-14 07:05:00,
2013-03-14 02:15:00,44.4,30.9,30.26,West,270,2.4,8.0,59,0.00,,,0.00,WUHU21636XXSP,2013-03-14 07:15:00,
2013-03-14 02:25:00,44.2,30.7,30.26,West,270,2.0,3.5,59,0.00,,,0.00,WUHU21636XXSP,2013-03-14 07:25:00,
2013-03-14 02:35:00,43.7,30.2,30.26,West,270,2.2,3.5,59,0.00,,,0.00,WUHU21636XXSP,2013-03-14 07:35:00,
2013-03-14 02:45:00,43.3,30.7,30.26,West,270,5.8,12.7,61,0.00,,,0.00,WUHU21636XXSP,2013-03-14 07:45:00,
2013-03-14 02:55:00,42.6,30.7,30.26,WNW,292,7.8,11.6,63,0.00,,,0.00,WUHU21636XXSP,2013-03-14 07:55:00,
2013-03-14 03:05:00,42.3,30.7,30.26,West,270,6.2,13.4,64,0.00,,,0.00,WUHU21636XXSP,2013-03-14 08:05:00,
2013-03-14 03:15:00,41.7,30.7,30.26,WNW,292,7.3,13.4,65,0.00,,,0.00,WUHU21636XXSP,2013-03-14 08:15:00,
2013-03-14 03:25:00,41.5,30.9,30.26,WNW,292,7.6,12.7,66,0.00,,,0.00,WUHU21636XXSP,2013-03-14 08:25:00,
2013-03-14 03:35:00,41.9,31.6,30.25,West,270,5.3,14.7,67,0.00,,,0.00,WUHU21636XXSP,2013-03-14 08:35:00,
2013-03-14 03:45:00,42.1,31.5,30.26,WNW,292,6.9,11.8,66,0.00,,,0.00,WUHU21636XXSP,2013-03-14 08:45:00,
2013-03-14 03:55:00,41.9,31.3,30.26,West,270,4.2,11.8,66,0.00,,,0.00,WUHU21636XXSP,2013-03-14 08:55:00,
2013-03-14 04:05:00,41.7,31.1,30.26,WNW,292,6.2,10.0,66,0.00,,,0.00,WUHU21636XXSP,2013-03-14 09:05:00,
2013-03-14 04:15:00,41.7,31.5,30.25,WNW,292,9.1,13.4,67,0.00,,,0.00,WUHU21636XXSP,2013-03-14 09:15:00,
2013-03-14 04:25:00,42.1,31.5,30.25,West,270,8.9,15.2,66,0.00,,,0.00,WUHU21636XXSP,2013-03-14 09:25:00,
2013-03-14 04:35:00,42.1,31.5,30.25,WNW,292,9.1,16.5,66,0.00,,,0.00,WUHU21636XXSP,2013-03-14 09:35:00,
2013-03-14 04:45:00,42.1,31.5,30.25,WNW,292,8.0,13.8,66,0.00,,,0.00,WUHU21636XXSP,2013-03-14 09:45:00,
2013-03-14 04:55:00,42.4,31.5,30.25,WNW,292,7.1,16.1,65,0.00,,,0.00,WUHU21636XXSP,2013-03-14 09:55:00,
2013-03-14 05:05:00,42.3,31.3,30.25,WNW,292,11.1,16.3,65,0.00,,,0.00,WUHU21636XXSP,2013-03-14 10:05:00,
2013-03-14 05:15:00,42.1,31.5,30.25,WNW,292,10.7,19.4,66,0.00,,,0.00,WUHU21636XXSP,2013-03-14 10:15:00,
2013-03-14 05:25:00,41.7,31.1,30.25,NW,315,12.5,18.5,66,0.00,,,0.00,WUHU21636XXSP,2013-03-14 10:25:00,
2013-03-14 05:35:00,41.7,31.1,30.25,West,270,8.5,17.0,66,0.00,,,0.00,WUHU21636XXSP,2013-03-14 10:35:00,
2013-03-14 05:45:00,41.7,31.1,30.25,WNW,292,8.5,17.2,66,0.00,,,0.00,WUHU21636XXSP,2013-03-14 10:45:00,
2013-03-14 05:55:00,41.7,31.1,30.26,WNW,292,9.1,16.1,66,0.00,,,0.00,WUHU21636XXSP,2013-03-14 10:55:00,
2013-03-14 06:05:00,41.5,31.3,30.26,WNW,292,12.0,16.3,67,0.00,,,0.00,WUHU21636XXSP,2013-03-14 11:05:00,
2013-03-14 06:15:00,41.2,31.3,30.26,WNW,292,9.3,16.1,68,0.00,,,0.00,WUHU21636XXSP,2013-03-14 11:15:00,
2013-03-14 06:25:00,40.8,30.9,30.26,WNW,292,6.9,16.1,68,0.00,,,0.00,WUHU21636XXSP,2013-03-14 11:25:00,
2013-03-14 06:35:00,40.6,30.7,30.27,WNW,292,6.7,13.1,68,0.00,,,0.00,WUHU21636XXSP,2013-03-14 11:35:00,
2013-03-14 06:45:00,40.1,30.6,30.27,WNW,292,8.5,12.7,69,0.00,,,0.00,WUHU21636XXSP,2013-03-14 11:45:00,
2013-03-14 06:55:00,39.9,30.9,30.27,WNW,292,7.8,14.5,70,0.00,,,0.00,WUHU21636XXSP,2013-03-14 11:55:00,
2013-03-14 07:05:00,39.9,30.9,30.27,WNW,292,6.9,15.8,70,0.00,,,0.00,WUHU21636XXSP,2013-03-14 12:05:00,
2013-03-14 07:15:00,40.1,31.1,30.27,WNW,292,9.6,17.6,70,0.00,,,0.00,WUHU21636XXSP,2013-03-14 12:15:00,
2013-03-14 07:25:00,39.9,30.9,30.27,WNW,292,10.9,17.6,70,0.00,,,0.00,WUHU21636XXSP,2013-03-14 12:25:00,
2013-03-14 07:35:00,39.9,30.9,30.28,NW,315,10.2,18.7,70,0.00,,,0.00,WUHU21636XXSP,2013-03-14 12:35:00,
2013-03-14 07:45:00,39.7,30.9,30.28,WNW,292,6.7,16.3,71,0.00,,,0.00,WUHU21636XXSP,2013-03-14 12:45:00,
2013-03-14 07:55:00,39.6,31.1,30.28,NW,315,9.1,17.2,72,0.00,,,0.00,WUHU21636XXSP,2013-03-14 12:55:00,
2013-03-14 08:05:00,39.6,31.1,30.28,West,270,8.5,14.3,72,0.00,,,0.00,WUHU21636XXSP,2013-03-14 13:05:00,
2013-03-14 08:15:00,39.6,31.1,30.29,WNW,292,10.9,17.8,72,0.00,,,0.00,WUHU21636XXSP,2013-03-14 13:15:00,
2013-03-14 08:25:00,39.4,31.3,30.29,WNW,292,10.5,16.3,73,0.00,,,0.00,WUHU21636XXSP,2013-03-14 13:25:00,
2013-03-14 08:35:00,39.7,31.6,30.29,WNW,292,10.5,16.1,73,0.00,,,0.00,WUHU21636XXSP,2013-03-14 13:35:00,
2013-03-14 08:45:00,39.9,31.8,30.30,NW,315,7.6,17.0,73,0.00,,,0.00,WUHU21636XXSP,2013-03-14 13:45:00,
2013-03-14 08:55:00,40.3,32.2,30.31,WNW,292,9.1,17.2,73,0.00,,,0.00,WUHU21636XXSP,2013-03-14 13:55:00,
2013-03-14 09:05:00,40.8,32.4,30.31,NW,315,11.1,17.2,72,0.00,,,0.00,WUHU21636XXSP,2013-03-14 14:05:00,
2013-03-14 09:15:00,41.5,33.1,30.31,NW,315,10.2,19.0,72,0.00,,,0.00,WUHU21636XXSP,2013-03-14 14:15:00,
2013-03-14 09:25:00,42.6,33.8,30.32,WNW,292,11.4,19.0,71,0.00,,,0.00,WUHU21636XXSP,2013-03-14 14:25:00,
2013-03-14 09:35:00,43.5,34.3,30.32,WNW,292,7.1,17.4,70,0.00,,,0.00,WUHU21636XXSP,2013-03-14 14:35:00,
2013-03-14 09:45:00,44.6,34.9,30.33,NW,315,6.2,16.1,69,0.00,,,0.00,WUHU21636XXSP,2013-03-14 14:45:00,
2013-03-14 09:55:00,45.5,35.1,30.33,NW,315,2.6,13.4,67,0.00,,,0.00,WUHU21636XXSP,2013-03-14 14:55:00,
2013-03-14 10:05:00,46.9,36.1,30.33,WNW,292,3.3,14.9,66,0.00,,,0.00,WUHU21636XXSP,2013-03-14 15:05:00,
2013-03-14 10:15:00,48.4,36.3,30.33,NW,315,6.4,13.6,63,0.00,,,0.00,WUHU21636XXSP,2013-03-14 15:15:00,
2013-03-14 10:25:00,49.6,36.3,30.33,NW,315,3.8,10.7,60,0.00,,,0.00,WUHU21636XXSP,2013-03-14 15:25:00,
2013-03-14 10:35:00,51.1,36.7,30.34,WNW,292,5.5,6.2,58,0.00,,,0.00,WUHU21636XXSP,2013-03-14 15:35:00,
2013-03-14 10:45:00,52.5,37.0,30.34,NNW,337,7.1,10.2,56,0.00,,,0.00,WUHU21636XXSP,2013-03-14 15:45:00,
2013-03-14 10:55:00,53.6,37.2,30.34,NW,315,3.1,9.8,54,0.00,,,0.00,WUHU21636XXSP,2013-03-14 15:55:00,
2013-03-14 11:05:00,54.5,37.6,30.34,NW,315,3.1,4.4,53,0.00,,,0.00,WUHU21636XXSP,2013-03-14 16:05:00,
2013-03-14 11:15:00,56.5,35.8,30.34,West,270,5.1,13.8,46,0.00,,,0.00,WUHU21636XXSP,2013-03-14 16:15:00,
2013-03-14 11:25:00,57.7,36.3,30.34,NNW,337,5.8,12.5,45,0.00,,,0.00,WUHU21636XXSP,2013-03-14 16:25:00,
2013-03-14 11:35:00,58.6,36.7,30.34,NW,315,3.5,10.2,44,0.00,,,0.00,WUHU21636XXSP,2013-03-14 16:35:00,
2013-03-14 11:45:00,59.5,36.3,30.34,NNW,337,8.0,11.1,42,0.00,,,0.00,WUHU21636XXSP,2013-03-14 16:45:00,
2013-03-14 11:55:00,60.3,36.9,30.34,NNW,337,2.2,12.0,42,0.00,,,0.00,WUHU21636XXSP,2013-03-14 16:55:00,
2013-03-14 12:05:00,61.2,36.5,30.34,WNW,292,6.4,13.1,40,0.00,,,0.00,WUHU21636XXSP,2013-03-14 17:05:00,
2013-03-14 12:15:00,61.7,36.3,30.34,NNE,22,8.5,11.4,39,0.00,,,0.00,WUHU21636XXSP,2013-03-14 17:15:00,
2013-03-14 12:25:00,62.4,37.0,30.33,NNE,22,4.9,11.4,39,0.00,,,0.00,WUHU21636XXSP,2013-03-14 17:25:00,
2013-03-14 12:35:00,63.1,36.9,30.33,NE,45,0.0,4.9,40,0.00,,,0.00,WUHU21636XXSP,2013-03-14 17:35:00,
2013-03-14 12:45:00,64.2,37.9,30.32,North,0,3.1,7.6,38,0.00,,,0.00,WUHU21636XXSP,2013-03-14 17:45:00,
2013-03-14 12:55:00,64.9,37.0,30.32,NNW,337,2.9,4.6,36,0.00,,,0.00,WUHU21636XXSP,2013-03-14 17:55:00,
2013-03-14 13:05:00,66.4,36.9,30.32,NW,315,4.0,13.1,34,0.00,,,0.00,WUHU21636XXSP,2013-03-14 18:05:00,
2013-03-14 13:15:00,66.9,36.7,30.32,NNW,337,2.4,12.5,33,0.00,,,0.00,WUHU21636XXSP,2013-03-14 18:15:00,
2013-03-14 13:25:00,67.6,35.8,30.32,NW,315,7.3,13.1,31,0.00,,,0.00,WUHU21636XXSP,2013-03-14 18:25:00,
2013-03-14 13:36:00,67.8,36.7,30.31,WNW,292,0.0,10.9,31,0.00,,,0.00,WUHU21636XXSP,2013-03-14 18:36:00,
2013-03-14 13:46:00,69.1,35.2,30.32,West,270,4.2,11.4,29,0.00,,,0.00,WUHU21636XXSP,2013-03-14 18:46:00,
2013-03-14 13:56:00,69.3,37.2,30.31,West,270,0.0,6.2,32,0.00,,,0.00,WUHU21636XXSP,2013-03-14 18:56:00,
2013-03-14 14:06:00,70.2,37.2,30.31,NNW,337,3.3,11.8,30,0.00,,,0.00,WUHU21636XXSP,2013-03-14 19:06:00,
2013-03-14 14:16:00,71.2,35.2,30.30,West,270,6.9,14.3,27,0.00,,,0.00,WUHU21636XXSP,2013-03-14 19:16:00,
2013-03-14 14:26:00,72.1,34.9,30.29,SW,225,6.7,9.1,26,0.00,,,0.00,WUHU21636XXSP,2013-03-14 19:26:00,
2013-03-14 14:36:00,72.7,37.4,30.29,NW,315,6.9,10.5,28,0.00,,,0.00,WUHU21636XXSP,2013-03-14 19:36:00,
2013-03-14 14:46:00,73.0,37.8,30.29,NE,45,0.0,12.0,31,0.00,,,0.00,WUHU21636XXSP,2013-03-14 19:46:00,
2013-03-14 14:56:00,73.6,35.1,30.28,West,270,3.8,9.3,25,0.00,,,0.00,WUHU21636XXSP,2013-03-14 19:56:00,
2013-03-14 15:07:00,73.8,36.3,30.28,WNW,292,3.5,11.4,26,0.00,,,0.00,WUHU21636XXSP,2013-03-14 20:07:00,
2013-03-14 15:16:00,74.3,35.8,30.28,NNW,337,2.4,9.8,25,0.00,,,0.00,WUHU21636XXSP,2013-03-14 20:16:00,
2013-03-14 15:26:00,74.7,36.0,30.28,NNW,337,5.3,10.0,25,0.00,,,0.00,WUHU21636XXSP,2013-03-14 20:26:00,
2013-03-14 15:36:00,74.8,35.2,30.27,West,270,0.0,13.6,24,0.00,,,0.00,WUHU21636XXSP,2013-03-14 20:36:00,
2013-03-14 15:46:00,74.8,36.1,30.27,North,0,5.3,5.3,25,0.00,,,0.00,WUHU21636XXSP,2013-03-14 20:46:00,
2013-03-14 15:56:00,74.8,34.2,30.26,West,270,1.7,5.3,25,0.00,,,0.00,WUHU21636XXSP,2013-03-14 20:56:00,
2013-03-14 16:06:00,75.6,36.9,30.26,WNW,292,0.0,8.9,25,0.00,,,0.00,WUHU21636XXSP,2013-03-14 21:06:00,
2013-03-14 16:17:00,76.3,36.3,30.26,West,270,5.3,8.7,24,0.00,,,0.00,WUHU21636XXSP,2013-03-14 21:17:00,
2013-03-14 16:27:00,75.7,36.0,30.25,West,270,0.0,11.1,24,0.00,,,0.00,WUHU21636XXSP,2013-03-14 21:27:00,
2013-03-14 16:37:00,75.9,36.1,30.25,WNW,292,0.0,9.6,24,0.00,,,0.00,WUHU21636XXSP,2013-03-14 21:37:00,
2013-03-14 16:47:00,75.7,36.0,30.25,NNW,337,0.0,4.2,25,0.00,,,0.00,WUHU21636XXSP,2013-03-14 21:47:00,
2013-03-14 16:57:00,76.6,34.5,30.25,WSW,247,3.8,3.8,22,0.00,,,0.00,WUHU21636XXSP,2013-03-14 21:57:00,
2013-03-14 17:07:00,75.9,34.0,30.26,NW,315,5.5,5.8,22,0.00,,,0.00,WUHU21636XXSP,2013-03-14 22:07:00,
2013-03-14 17:17:00,76.1,34.2,30.25,WNW,292,8.5,13.8,22,0.00,,,0.00,WUHU21636XXSP,2013-03-14 22:17:00,
2013-03-14 17:27:00,75.9,34.0,30.25,West,270,7.8,11.1,22,0.00,,,0.00,WUHU21636XXSP,2013-03-14 22:27:00,
2013-03-14 17:37:00,75.7,34.9,30.25,West,270,0.6,11.1,22,0.00,,,0.00,WUHU21636XXSP,2013-03-14 22:37:00,
2013-03-14 17:47:00,75.6,33.8,30.25,WNW,292,0.0,8.9,23,0.00,,,0.00,WUHU21636XXSP,2013-03-14 22:47:00,
2013-03-14 17:57:00,74.8,34.2,30.25,NW,315,6.0,11.8,23,0.00,,,0.00,WUHU21636XXSP,2013-03-14 22:57:00,
2013-03-14 18:07:00,75.0,34.3,30.24,WNW,292,0.0,7.3,22,0.00,,,0.00,WUHU21636XXSP,2013-03-14 23:07:00,
2013-03-14 18:17:00,74.7,34.0,30.24,NNW,337,4.6,7.6,23,0.00,,,0.00,WUHU21636XXSP,2013-03-14 23:17:00,
2013-03-14 18:27:00,73.6,34.2,30.24,NW,315,2.2,4.9,23,0.00,,,0.00,WUHU21636XXSP,2013-03-14 23:27:00,
2013-03-14 18:37:00,73.6,34.2,30.24,WNW,292,3.3,5.1,23,0.00,,,0.00,WUHU21636XXSP,2013-03-14 23:37:00,
2013-03-14 18:47:00,73.6,33.1,30.24,West,270,0.0,5.3,23,0.00,,,0.00,WUHU21636XXSP,2013-03-14 23:47:00,
2013-03-14 18:57:00,73.6,33.1,30.24,WNW,292,0.0,0.0,24,0.00,,,0.00,WUHU21636XXSP,2013-03-14 23:57:00,
2013-03-14 19:07:00,73.2,34.9,30.23,WNW,292,0.0,0.0,25,0.00,,,0.00,WUHU21636XXSP,2013-03-15 00:07:00,
2013-03-14 19:17:00,72.7,34.3,30.23,WNW,292,0.0,0.0,25,0.00,,,0.00,WUHU21636XXSP,2013-03-15 00:17:00,
2013-03-14 19:27:00,71.8,34.7,30.23,WNW,292,0.0,0.0,26,0.00,,,0.00,WUHU21636XXSP,2013-03-15 00:27:00,
2013-03-14 19:37:00,70.9,34.9,30.23,WNW,292,0.0,0.0,27,0.00,,,0.00,WUHU21636XXSP,2013-03-15 00:37:00,
2013-03-14 19:47:00,69.6,33.8,30.23,WNW,292,0.0,0.0,27,0.00,,,0.00,WUHU21636XXSP,2013-03-15 00:47:00,
2013-03-14 19:57:00,68.7,32.9,30.23,WNW,292,0.0,0.0,27,0.00,,,0.00,WUHU21636XXSP,2013-03-15 00:57:00,
2013-03-14 20:07:00,67.3,32.7,30.23,WNW,292,0.0,0.0,28,0.00,,,0.00,WUHU21636XXSP,2013-03-15 01:07:00,
2013-03-14 20:17:00,66.4,34.0,30.23,WNW,292,0.0,0.0,30,0.00,,,0.00,WUHU21636XXSP,2013-03-15 01:17:00,
2013-03-14 20:27:00,65.5,33.3,30.23,WNW,292,0.0,0.0,30,0.00,,,0.00,WUHU21636XXSP,2013-03-15 01:27:00,
2013-03-14 20:37:00,64.2,32.9,30.23,WNW,292,0.0,0.0,31,0.00,,,0.00,WUHU21636XXSP,2013-03-15 01:37:00,
2013-03-14 20:47:00,63.1,31.8,30.22,WNW,292,0.0,0.0,31,0.00,,,0.00,WUHU21636XXSP,2013-03-15 01:47:00,
2013-03-14 20:57:00,62.2,31.8,30.22,WNW,292,0.0,3.5,32,0.00,,,0.00,WUHU21636XXSP,2013-03-15 01:57:00,
2013-03-14 21:07:00,61.3,31.6,30.21,SSE,157,0.0,2.0,33,0.00,,,0.00,WUHU21636XXSP,2013-03-15 02:07:00,
2013-03-14 21:18:00,60.6,31.1,30.21,SSE,157,0.0,0.0,33,0.00,,,0.00,WUHU21636XXSP,2013-03-15 02:18:00,
2013-03-14 21:28:00,60.3,31.5,30.22,SSE,157,0.0,0.4,34,0.00,,,0.00,WUHU21636XXSP,2013-03-15 02:28:00,
2013-03-14 21:38:00,60.1,31.3,30.22,SSE,157,0.0,0.0,34,0.00,,,0.00,WUHU21636XXSP,2013-03-15 02:38:00,
2013-03-14 21:48:00,59.7,30.9,30.22,SSE,157,0.0,0.0,35,0.00,,,0.00,WUHU21636XXSP,2013-03-15 02:48:00,
2013-03-14 21:58:00,59.2,31.3,30.22,SSE,157,0.0,0.0,35,0.00,,,0.00,WUHU21636XXSP,2013-03-15 02:58:00,
2013-03-14 22:08:00,58.8,30.9,30.21,South,180,2.6,3.3,35,0.00,,,0.00,WUHU21636XXSP,2013-03-15 03:08:00,
2013-03-14 22:18:00,58.3,31.1,30.21,SSW,202,3.1,6.7,36,0.00,,,0.00,WUHU21636XXSP,2013-03-15 03:18:00,
2013-03-14 22:28:00,57.9,30.9,30.21,SSW,202,1.3,3.3,36,0.00,,,0.00,WUHU21636XXSP,2013-03-15 03:28:00,
2013-03-14 22:38:00,57.7,31.5,30.21,SSW,202,4.6,4.6,37,0.00,,,0.00,WUHU21636XXSP,2013-03-15 03:38:00,
2013-03-14 22:48:00,57.2,31.6,30.20,SW,225,5.8,5.8,38,0.00,,,0.00,WUHU21636XXSP,2013-03-15 03:48:00,
2013-03-14 22:58:00,56.8,32.0,30.21,SSW,202,4.0,5.8,39,0.00,,,0.00,WUHU21636XXSP,2013-03-15 03:58:00,
2013-03-14 23:08:00,56.5,31.6,30.20,SW,225,5.3,5.3,39,0.00,,,0.00,WUHU21636XXSP,2013-03-15 04:08:00,
2013-03-14 23:18:00,56.5,31.6,30.20,SSW,202,0.0,5.3,39,0.00,,,0.00,WUHU21636XXSP,2013-03-15 04:18:00,
2013-03-14 23:28:00,56.1,31.3,30.20,SSW,202,0.0,2.2,39,0.00,,,0.00,WUHU21636XXSP,2013-03-15 04:28:00,
2013-03-14 23:38:00,55.9,31.8,30.19,SSW,202,0.0,0.0,40,0.00,,,0.00,WUHU21636XXSP,2013-03-15 04:38:00,
2013-03-14 23:48:00,55.8,31.6,30.19,SSW,202,2.2,2.2,40,0.00,,,0.00,WUHU21636XXSP,2013-03-15 04:48:00,
2013-03-14 23:58:00,55.6,31.5,30.19,SSW,202,0.0,2.2,40,0.00,,,0.00,WUHU21636XXSP,2013-03-15 04:58:00,